星链-36500(STARLINK-36500)

导读

STARLINK-36500是美国于2026年1月4日发射的星链系列卫星,隶属于SpaceX公司的星链互联网星座项目。作为星链网络的组成部分,它将为全球尤其是偏远地区提供低延迟宽带互联网服务,进一步扩充星链星座的卫星规模,增强星座整体服务能力与覆盖范围,推动全球卫星互联网部署进程。

Basic Information
目录编号:
67320
目录名称:
STARLINK-36500
国际标识:
2026-002R
轨道中心:
EARTH
卫星名称:
星链-36500
卫星全名:
星链-36500(STARLINK-36500)
卫星状态:
在轨 (已飞行243 天)
发射日期:
2026-01-04 UTC
国别 :
美国 (US)
星等 :
--
Orbit Information
数据来源 国际轨道数据
星历时间: 2026-09-03T19:19:00+0800
16小时前
查看轨道信息
半长轴: 6861.2km
偏心率: 0.0001382
轨道倾角: 43.004°
近地点辐角 229.344°
升交点赤经 41.655°
平近点角 130.729°
近地点: 482.114km
远地点: 484.012km
周期: 94.267分钟
每日圈数: 15.275754
Detailed Information
固有亮度:
5
最大亮度:
2.5
卫星平台:
Starlink V1.0
覆盖范围:
全球
运营商:
太空探索技术公司
运营商所在国:
美国
制造商(研发单位):
太空探索技术公司
制造商所在国:
美国
使用方式:
暂无
Satellite Introduction
Starlink 计划是 SpaceX 推出的全球卫星互联网项目,通过发射低轨道卫星,为全球尤其是偏远地区提供高速、低延迟的互联网服务。自 2019 年起,Starlink 已部署数千颗卫星,旨在缩小全球数字鸿沟,推动互联网普及。该项目还为军事、航空等行业提供通信支持,带来广泛经济效益。
2D Orbit Map
3D Orbit Map
Orbit Altitude Analysis Chart
Orbit Inclination Analysis Chart
Orbit Comprehensive Analysis Chart
View Comprehensive Chart
Conjunction Data List
Event ID Objects TCA Miss Dist (km) Collision Risk Probability Collision Risk Index (CRI) Action
CDM_260905-093105-706806-732021
2026-09-05T
09:31:01+0000
0.907 km
远距离
2.879477E-5 中风险 0.64
CDM_260905-110505-706806-732021
2026-09-05T
11:05:10+0000
1.064 km
极远距离
1.661268E-5 中风险 0.59
CDM_260905-100506-315206-732021
2026-09-05T
10:05:47+0000
1.332 km
极远距离
4.758599E-6 低风险 0.49
CDM_260905-075605-706806-732021
2026-09-05T
07:56:52+0000
1.647 km
极远距离
3.841334E-6 低风险 0.47
CDM_260905-062205-706806-732021
2026-09-05T
06:22:42+0000
2.596 km
极远距离
1.309455E-6 低风险 0.37
CDM_260905-113906-315206-732021
2026-09-05T
11:39:57+0000
2.855 km
极远距离
7.747358E-7 极低风险 0.33